Obiščite še:

Template documentation
and downloads

And another site



Select another period ( hide this area )

Enote Obdobje Custom range Directly to
Metrično Angleško Obe
Dnevni Tedenski Mesečni Letni
use both date-selectors for a custom range
previous Dan
With this date

WeatherUnderground graphs for this period ( click here )


Dnevni povzetek za Petek 22 November 2019
Čas Temp. ( °C ) Dew pt. ( °C ) Veter ( km/h ) Od Sunek vetra ( km/h ) Zračni tlak ( hPa ) Humid.( % ) Rainrate ( cm )
Višja6,8 6,1 3,2 SSZ ( 26/75 ) 6,4 1015,5 95 -
Povprečje5,2 4,3 0,5 Brezveterje #109/151 1,0 1014,6 94 -
Nižja3,7 2,8 -   0,0 1013,8 94 -
Dnevni Tabular details for Petek 22 November 2019
Čas Temp. ( °C ) Dew pt. ( °C ) Veter ( km/h ) Od Sunek vetra ( km/h ) Zračni tlak ( hPa ) Humid.( % ) Rainrate ( cm )
00:00 6,3 5,4   Brezveterje   1013,8 94 -
00:05 6,3 5,4   Brezveterje   1013,8 94 -
00:10 6,3 5,4   Brezveterje   1013,8 94 -
00:15 6,3 5,4   Brezveterje   1013,8 94 -
00:20 6,3 5,4   Brezveterje   1013,8 94 -
00:25 6,3 5,4   Brezveterje   1013,8 94 -
00:30 6,3 5,4   Brezveterje   1014,1 94 -
00:35 6,3 5,4   Brezveterje   1014,1 94 -
00:40 6,3 5,4   Brezveterje   1014,1 94 -
00:45 6,3 5,4   Brezveterje   1014,1 94 -
00:50 6,3 5,4   Brezveterje   1014,1 94 -
00:55 6,2 5,3   Brezveterje 1,6 1014,1 94 -
01:00 6,1 5,2   Brezveterje   1014,1 94 -
01:05 6,0 5,1   Brezveterje   1014,1 94 -
01:10 5,9 5,0   Brezveterje   1014,1 94 -
01:15 5,8 4,9   Brezveterje   1014,1 94 -
01:20 5,7 4,8   Brezveterje   1014,1 94 -
01:25 5,7 4,8   Brezveterje   1014,1 94 -
01:30 5,7 4,8   Brezveterje   1014,1 94 -
01:35 5,7 4,8   Brezveterje   1014,1 94 -
01:40 5,7 4,8   Brezveterje   1014,1 94 -
01:45 5,7 4,8   Brezveterje   1014,1 94 -
01:50 5,7 4,8   Brezveterje   1014,1 94 -
01:55 5,7 4,8 1,6 SZ 3,2 1014,1 94 -
02:02 5,5 4,6 1,6 SSZ 1,6 1014,1 94 -
02:05 5,4 4,6 1,6 SSZ 3,2 1014,4 94 -
02:11 5,4 4,6 1,6 SSZ 3,2 1014,1 94 -
02:15 5,5 4,8   Brezveterje 1,6 1014,1 95 -
02:20 5,5 4,6   Brezveterje 1,6 1014,1 94 -
02:25 5,5 4,8   Brezveterje   1014,1 95 -
02:30 5,5 4,8   Brezveterje   1014,1 95 -
02:35 5,5 4,8   Brezveterje   1014,1 95 -
02:40 5,5 4,8   Brezveterje   1014,1 95 -
02:45 5,5 4,8   Brezveterje   1013,8 95 -
02:50 5,4 4,6   Brezveterje   1013,8 94 -
02:55 5,4 4,5   Brezveterje   1013,8 94 -
03:00 5,3 4,4   Brezveterje   1014,1 94 -
03:05 5,3 4,4   Brezveterje   1014,1 94 -
03:10 5,3 4,4   Brezveterje   1014,1 94 -
03:15 5,3 4,4   Brezveterje   1014,1 94 -
03:20 5,3 4,4   Brezveterje   1014,1 94 -
03:25 5,2 4,5   Brezveterje   1014,1 95 -
03:30 5,1 4,4 1,6 SSZ 1,6 1014,1 95 -
03:36 4,9 4,1 1,6 SSZ 3,2 1014,1 94 -
03:40 4,9 4,0   Brezveterje   1014,1 94 -
03:45 4,8 3,9   Brezveterje   1014,1 94 -
03:50 4,8 3,9   Brezveterje   1014,1 94 -
03:55 4,8 3,9   Brezveterje   1014,1 94 -
04:00 4,8 3,9   Brezveterje   1014,1 94 -
04:05 4,7 3,8   Brezveterje 1,6 1014,1 94 -
04:10 4,7 3,8 1,6 SSZ 1,6 1014,1 94 -
04:15 4,7 3,8 1,6 SSZ 1,6 1014,1 94 -
04:20 4,7 3,8   Brezveterje   1014,1 94 -
04:25 4,6 3,7   Brezveterje   1014,1 94 -
04:30 4,6 3,7   Brezveterje   1014,1 94 -
04:35 4,6 3,7   Brezveterje   1014,1 94 -
04:40 4,6 3,7   Brezveterje   1014,1 94 -
04:45 4,5 3,6   Brezveterje   1014,1 94 -
04:50 4,4 3,7   Brezveterje   1014,1 95 -
04:55 4,3 3,4 1,6 SSZ 3,2 1014,1 94 -
05:00 4,2 3,3 1,6 SSZ 1,6 1014,1 94 -
05:05 4,2 3,3 1,6 SSZ 1,6 1014,1 94 -
05:10 4,1 3,2   Brezveterje   1014,1 94 -
05:15 4,1 3,2   Brezveterje   1014,1 94 -
05:20 4,1 3,2   Brezveterje   1014,1 94 -
05:25 4,1 3,2   Brezveterje   1014,1 94 -
05:30 4,0 3,1   Brezveterje 1,6 1014,4 94 -
05:35 3,9 3,1 1,6 SSZ 3,2 1014,4 94 -
05:40 3,9 3,1 1,6 SSZ 1,6 1014,4 94 -
05:45 3,9 3,0   Brezveterje 1,6 1014,4 94 -
05:50 3,9 3,0   Brezveterje   1014,4 94 -
05:55 3,9 3,0   Brezveterje 1,6 1014,4 94 -
06:00 3,9 3,0 1,6 SSZ 1,6 1014,4 94 -
06:05 3,9 3,1 1,6 SSZ 3,2 1014,4 94 -
06:10 3,9 3,0 1,6 SSZ 3,2 1014,4 94 -
06:15 3,9 3,0 1,6 SSZ 3,2 1014,4 94 -
06:20 3,8 2,9   Brezveterje   1014,4 94 -
06:25 3,8 2,9   Brezveterje   1014,4 94 -
06:30 3,7 2,8   Brezveterje   1014,4 94 -
06:35 3,7 2,8   Brezveterje   1014,4 94 -
06:40 3,8 3,1   Brezveterje   1014,4 95 -
06:45 3,8 3,1   Brezveterje   1014,4 95 -
06:50 3,9 3,1   Brezveterje   1014,4 94 -
06:55 3,9 3,1   Brezveterje   1014,4 94 -
07:00 4,0 3,1   Brezveterje   1014,4 94 -
07:05 4,1 3,2   Brezveterje   1014,8 94 -
07:10 4,1 3,2   Brezveterje   1014,8 94 -
07:15 4,1 3,4   Brezveterje   1014,8 95 -
07:20 4,2 3,5   Brezveterje 1,6 1014,8 95 -
07:25 4,3 3,6 1,6 Sever 4,8 1014,8 95 -
07:30 4,3 3,4 1,6 ZSZ 1,6 1014,8 94 -
07:35 4,3 3,4 1,6 ZSZ 1,6 1014,8 94 -
07:40 4,4 3,5   Brezveterje   1014,8 94 -
07:45 4,4 3,5   Brezveterje   1014,8 94 -
07:50 4,4 3,5   Brezveterje   1014,8 94 -
07:55 4,4 3,6   Brezveterje   1015,1 94 -
08:00 4,4 3,6   Brezveterje   1015,1 94 -
08:05 4,5 3,8   Brezveterje   1015,1 95 -
08:10 4,4 3,6   Brezveterje   1015,5 94 -
08:15 4,4 3,6   Brezveterje   1015,5 94 -
08:21 4,5 3,8   Brezveterje   1015,5 95 -
08:25 4,6 3,8   Brezveterje   1015,5 95 -
08:30 4,6 3,9   Brezveterje   1015,5 95 -
08:35 4,7 3,8   Brezveterje   1015,5 94 -
08:40 4,8 3,9   Brezveterje   1015,5 94 -
08:45 4,8 4,1 1,6 ZSZ 3,2 1015,5 95 -
08:50 4,8 4,1 1,6 ZSZ 3,2 1015,5 95 -
08:55 4,9 4,2   Brezveterje 3,2 1015,5 95 -
09:00 4,9 4,2 3,2 SZ 3,2 1015,5 95 -
09:05 4,9 4,2 3,2 SZ 3,2 1015,5 95 -
09:10 4,9 4,2 1,6 SZ 1,6 1015,5 95 -
09:15 5,0 4,3   Brezveterje 1,6 1015,5 95 -
09:20 5,1 4,2   Brezveterje   1015,5 94 -
09:25 5,1 4,2   Brezveterje   1015,5 94 -
09:31 5,2 4,3   Brezveterje   1015,5 94 -
09:35 5,3 4,6   Brezveterje 1,6 1015,5 95 -
09:40 5,3 4,6   Brezveterje 1,6 1015,5 95 -
09:45 5,3 4,6   Brezveterje 1,6 1015,5 95 -
09:50 5,3 4,6   Brezveterje 1,6 1015,5 95 -
09:55 5,3 4,6   Brezveterje 1,6 1015,5 95 -
10:00 5,4 4,7   Brezveterje   1015,5 95 -
10:05 5,4 4,7   Brezveterje 1,6 1015,5 95 -
10:10 5,5 4,8   Brezveterje   1015,5 95 -
10:15 5,4 4,6 1,6 Jug 3,2 1015,5 94 -
10:20 5,4 4,7 1,6 Jug 1,6 1015,5 95 -
10:25 5,4 4,6 1,6 Jug 3,2 1015,5 94 -
10:30 5,4 4,7   Brezveterje   1015,5 95 -
10:35 5,5 4,8   Brezveterje   1015,5 95 -
10:40 5,6 4,8   Brezveterje   1015,5 95 -
10:45 5,7 4,9   Brezveterje   1015,5 95 -
10:50 5,8 5,1   Brezveterje   1015,5 95 -
10:55 5,9 5,2   Brezveterje   1015,5 95 -
11:00 6,0 5,3   Brezveterje   1015,1 95 -
11:05 6,1 5,4   Brezveterje 3,2 1015,1 95 -
11:10 6,2 5,5 1,6 JZ 1,6 1015,1 95 -
11:15 6,4 5,7   Brezveterje 1,6 1015,1 95 -
11:20 6,4 5,7   Brezveterje 1,6 1015,1 95 -
11:25 6,4 5,7 1,6 SZ 4,8 1015,1 95 -
11:30 6,4 5,7 1,6 SZ 1,6 1014,8 95 -
11:35 6,4 5,7   Brezveterje 1,6 1014,8 95 -
11:40 6,4 5,7 1,6 SZ 1,6 1014,8 95 -
11:45 6,6 5,9 1,6 SZ 3,2 1014,8 95 -
11:50 6,7 5,9 3,2 ZSZ 3,2 1014,8 95 -
11:55 6,7 6,0 1,6 ZSZ 6,4 1014,8 95 -
12:00 6,8 6,1 1,6 SZ 4,8 1014,8 95 -
12:05 6,8 6,1 3,2 SZ 4,8 1014,8 95 -
12:10 6,7 6,0 3,2 SZ 3,2 1014,8 95 -
12:15 6,7 6,0 1,6 ZSZ 3,2 1014,8 95 -
12:20 6,7 6,0 1,6 ZSZ 1,6 1014,8 95 -
12:25 6,7 6,0 1,6 ZSZ 3,2 1014,4 95 -
12:31 6,7 5,9 1,6 JZ 4,8 1014,4 95 -
Dnevni povzetek za Petek 22 November 2019
Čas Temp. ( °C ) Dew pt. ( °C ) Veter ( km/h ) Od Sunek vetra ( km/h ) Zračni tlak ( hPa ) Humid.( % ) Rainrate ( cm )
Višja6,8 6,1 3,2 SSZ ( 26/75 ) 6,4 1015,5 95 -
Povprečje5,2 4,3 0,5 Brezveterje #109/151 1,0 1014,6 94 -
Nižja3,7 2,8 -   0,0 1013,8 94 -
Dnevni Tabular details for Petek 22 November 2019
Čas Temp. ( °C ) Dew pt. ( °C ) Veter ( km/h ) Od Sunek vetra ( km/h ) Zračni tlak ( hPa ) Humid.( % ) Rainrate ( cm )
00:00 6,3 5,4   Brezveterje   1013,8 94 -
00:05 6,3 5,4   Brezveterje   1013,8 94 -
00:10 6,3 5,4   Brezveterje   1013,8 94 -
00:15 6,3 5,4   Brezveterje   1013,8 94 -
00:20 6,3 5,4   Brezveterje   1013,8 94 -
00:25 6,3 5,4   Brezveterje   1013,8 94 -
00:30 6,3 5,4   Brezveterje   1014,1 94 -
00:35 6,3 5,4   Brezveterje   1014,1 94 -
00:40 6,3 5,4   Brezveterje   1014,1 94 -
00:45 6,3 5,4   Brezveterje   1014,1 94 -
00:50 6,3 5,4   Brezveterje   1014,1 94 -
00:55 6,2 5,3   Brezveterje 1,6 1014,1 94 -
01:00 6,1 5,2   Brezveterje   1014,1 94 -
01:05 6,0 5,1   Brezveterje   1014,1 94 -
01:10 5,9 5,0   Brezveterje   1014,1 94 -
01:15 5,8 4,9   Brezveterje   1014,1 94 -
01:20 5,7 4,8   Brezveterje   1014,1 94 -
01:25 5,7 4,8   Brezveterje   1014,1 94 -
01:30 5,7 4,8   Brezveterje   1014,1 94 -
01:35 5,7 4,8   Brezveterje   1014,1 94 -
01:40 5,7 4,8   Brezveterje   1014,1 94 -
01:45 5,7 4,8   Brezveterje   1014,1 94 -
01:50 5,7 4,8   Brezveterje   1014,1 94 -
01:55 5,7 4,8 1,6 SZ 3,2 1014,1 94 -
02:02 5,5 4,6 1,6 SSZ 1,6 1014,1 94 -
02:05 5,4 4,6 1,6 SSZ 3,2 1014,4 94 -
02:11 5,4 4,6 1,6 SSZ 3,2 1014,1 94 -
02:15 5,5 4,8   Brezveterje 1,6 1014,1 95 -
02:20 5,5 4,6   Brezveterje 1,6 1014,1 94 -
02:25 5,5 4,8   Brezveterje   1014,1 95 -
02:30 5,5 4,8   Brezveterje   1014,1 95 -
02:35 5,5 4,8   Brezveterje   1014,1 95 -
02:40 5,5 4,8   Brezveterje   1014,1 95 -
02:45 5,5 4,8   Brezveterje   1013,8 95 -
02:50 5,4 4,6   Brezveterje   1013,8 94 -
02:55 5,4 4,5   Brezveterje   1013,8 94 -
03:00 5,3 4,4   Brezveterje   1014,1 94 -
03:05 5,3 4,4   Brezveterje   1014,1 94 -
03:10 5,3 4,4   Brezveterje   1014,1 94 -
03:15 5,3 4,4   Brezveterje   1014,1 94 -
03:20 5,3 4,4   Brezveterje   1014,1 94 -
03:25 5,2 4,5   Brezveterje   1014,1 95 -
03:30 5,1 4,4 1,6 SSZ 1,6 1014,1 95 -
03:36 4,9 4,1 1,6 SSZ 3,2 1014,1 94 -
03:40 4,9 4,0   Brezveterje   1014,1 94 -
03:45 4,8 3,9   Brezveterje   1014,1 94 -
03:50 4,8 3,9   Brezveterje   1014,1 94 -
03:55 4,8 3,9   Brezveterje   1014,1 94 -
04:00 4,8 3,9   Brezveterje   1014,1 94 -
04:05 4,7 3,8   Brezveterje 1,6 1014,1 94 -
04:10 4,7 3,8 1,6 SSZ 1,6 1014,1 94 -
04:15 4,7 3,8 1,6 SSZ 1,6 1014,1 94 -
04:20 4,7 3,8   Brezveterje   1014,1 94 -
04:25 4,6 3,7   Brezveterje   1014,1 94 -
04:30 4,6 3,7   Brezveterje   1014,1 94 -
04:35 4,6 3,7   Brezveterje   1014,1 94 -
04:40 4,6 3,7   Brezveterje   1014,1 94 -
04:45 4,5 3,6   Brezveterje   1014,1 94 -
04:50 4,4 3,7   Brezveterje   1014,1 95 -
04:55 4,3 3,4 1,6 SSZ 3,2 1014,1 94 -
05:00 4,2 3,3 1,6 SSZ 1,6 1014,1 94 -
05:05 4,2 3,3 1,6 SSZ 1,6 1014,1 94 -
05:10 4,1 3,2   Brezveterje   1014,1 94 -
05:15 4,1 3,2   Brezveterje   1014,1 94 -
05:20 4,1 3,2   Brezveterje   1014,1 94 -
05:25 4,1 3,2   Brezveterje   1014,1 94 -
05:30 4,0 3,1   Brezveterje 1,6 1014,4 94 -
05:35 3,9 3,1 1,6 SSZ 3,2 1014,4 94 -
05:40 3,9 3,1 1,6 SSZ 1,6 1014,4 94 -
05:45 3,9 3,0   Brezveterje 1,6 1014,4 94 -
05:50 3,9 3,0   Brezveterje   1014,4 94 -
05:55 3,9 3,0   Brezveterje 1,6 1014,4 94 -
06:00 3,9 3,0 1,6 SSZ 1,6 1014,4 94 -
06:05 3,9 3,1 1,6 SSZ 3,2 1014,4 94 -
06:10 3,9 3,0 1,6 SSZ 3,2 1014,4 94 -
06:15 3,9 3,0 1,6 SSZ 3,2 1014,4 94 -
06:20 3,8 2,9   Brezveterje   1014,4 94 -
06:25 3,8 2,9   Brezveterje   1014,4 94 -
06:30 3,7 2,8   Brezveterje   1014,4 94 -
06:35 3,7 2,8   Brezveterje   1014,4 94 -
06:40 3,8 3,1   Brezveterje   1014,4 95 -
06:45 3,8 3,1   Brezveterje   1014,4 95 -
06:50 3,9 3,1   Brezveterje   1014,4 94 -
06:55 3,9 3,1   Brezveterje   1014,4 94 -
07:00 4,0 3,1   Brezveterje   1014,4 94 -
07:05 4,1 3,2   Brezveterje   1014,8 94 -
07:10 4,1 3,2   Brezveterje   1014,8 94 -
07:15 4,1 3,4   Brezveterje   1014,8 95 -
07:20 4,2 3,5   Brezveterje 1,6 1014,8 95 -
07:25 4,3 3,6 1,6 Sever 4,8 1014,8 95 -
07:30 4,3 3,4 1,6 ZSZ 1,6 1014,8 94 -
07:35 4,3 3,4 1,6 ZSZ 1,6 1014,8 94 -
07:40 4,4 3,5   Brezveterje   1014,8 94 -
07:45 4,4 3,5   Brezveterje   1014,8 94 -
07:50 4,4 3,5   Brezveterje   1014,8 94 -
07:55 4,4 3,6   Brezveterje   1015,1 94 -
08:00 4,4 3,6   Brezveterje   1015,1 94 -
08:05 4,5 3,8   Brezveterje   1015,1 95 -
08:10 4,4 3,6   Brezveterje   1015,5 94 -
08:15 4,4 3,6   Brezveterje   1015,5 94 -
08:21 4,5 3,8   Brezveterje   1015,5 95 -
08:25 4,6 3,8   Brezveterje   1015,5 95 -
08:30 4,6 3,9   Brezveterje   1015,5 95 -
08:35 4,7 3,8   Brezveterje   1015,5 94 -
08:40 4,8 3,9   Brezveterje   1015,5 94 -
08:45 4,8 4,1 1,6 ZSZ 3,2 1015,5 95 -
08:50 4,8 4,1 1,6 ZSZ 3,2 1015,5 95 -
08:55 4,9 4,2   Brezveterje 3,2 1015,5 95 -
09:00 4,9 4,2 3,2 SZ 3,2 1015,5 95 -
09:05 4,9 4,2 3,2 SZ 3,2 1015,5 95 -
09:10 4,9 4,2 1,6 SZ 1,6 1015,5 95 -
09:15 5,0 4,3   Brezveterje 1,6 1015,5 95 -
09:20 5,1 4,2   Brezveterje   1015,5 94 -
09:25 5,1 4,2   Brezveterje   1015,5 94 -
09:31 5,2 4,3   Brezveterje   1015,5 94 -
09:35 5,3 4,6   Brezveterje 1,6 1015,5 95 -
09:40 5,3 4,6   Brezveterje 1,6 1015,5 95 -
09:45 5,3 4,6   Brezveterje 1,6 1015,5 95 -
09:50 5,3 4,6   Brezveterje 1,6 1015,5 95 -
09:55 5,3 4,6   Brezveterje 1,6 1015,5 95 -
10:00 5,4 4,7   Brezveterje   1015,5 95 -
10:05 5,4 4,7   Brezveterje 1,6 1015,5 95 -
10:10 5,5 4,8   Brezveterje   1015,5 95 -
10:15 5,4 4,6 1,6 Jug 3,2 1015,5 94 -
10:20 5,4 4,7 1,6 Jug 1,6 1015,5 95 -
10:25 5,4 4,6 1,6 Jug 3,2 1015,5 94 -
10:30 5,4 4,7   Brezveterje   1015,5 95 -
10:35 5,5 4,8   Brezveterje   1015,5 95 -
10:40 5,6 4,8   Brezveterje   1015,5 95 -
10:45 5,7 4,9   Brezveterje   1015,5 95 -
10:50 5,8 5,1   Brezveterje   1015,5 95 -
10:55 5,9 5,2   Brezveterje   1015,5 95 -
11:00 6,0 5,3   Brezveterje   1015,1 95 -
11:05 6,1 5,4   Brezveterje 3,2 1015,1 95 -
11:10 6,2 5,5 1,6 JZ 1,6 1015,1 95 -
11:15 6,4 5,7   Brezveterje 1,6 1015,1 95 -
11:20 6,4 5,7   Brezveterje 1,6 1015,1 95 -
11:25 6,4 5,7 1,6 SZ 4,8 1015,1 95 -
11:30 6,4 5,7 1,6 SZ 1,6 1014,8 95 -
11:35 6,4 5,7   Brezveterje 1,6 1014,8 95 -
11:40 6,4 5,7 1,6 SZ 1,6 1014,8 95 -
11:45 6,6 5,9 1,6 SZ 3,2 1014,8 95 -
11:50 6,7 5,9 3,2 ZSZ 3,2 1014,8 95 -
11:55 6,7 6,0 1,6 ZSZ 6,4 1014,8 95 -
12:00 6,8 6,1 1,6 SZ 4,8 1014,8 95 -
12:05 6,8 6,1 3,2 SZ 4,8 1014,8 95 -
12:10 6,7 6,0 3,2 SZ 3,2 1014,8 95 -
12:15 6,7 6,0 1,6 ZSZ 3,2 1014,8 95 -
12:20 6,7 6,0 1,6 ZSZ 1,6 1014,8 95 -
12:25 6,7 6,0 1,6 ZSZ 3,2 1014,4 95 -
12:31 6,7 5,9 1,6 JZ 4,8 1014,4 95 -

Download your copy of this data-set  here

Our weather-data as stored at Weather Underground. Script developed by Jim McMurry. Adapted for the template by Leuven-Template.eu

Oprema, ki se uporablja:

Vremenska postaja
Davis VP2

Vremenski program
WeatherLink

Davis VP2

WeatherLink

Meteorološki podatki vremenske postaje Luče so neuradni, meteorološka postaja sama pa ni del državne mreže Agencije Republike Slovenije za okolje (ARSO),
je pa vključena v Vremensko društvo ZEVS. Prikazani podatki so izmerjeni točno, vendar so zgolj informativni in nimajo značaja uradnega podatka.

Podatke meri vremenska postaja "Davis VP2" od leta 2008 dalje.

Opozarjamo, da ne prevzamemo odgovornosti za morebitno nastalo škodo, ki bi nastala zaradi odločitve, sprejete na osnovi teh podatkov!